AYY292 KBLI-KPAE

Flight info

Callsign AYY292
Flight time 0h 17m
Altitude 11000
Route CVV
Aircraft A319/M-SDE3FGHIRWY/LB1

Departure

Time 2026-04-24 15:33
Airport Bellingham International Airport (KBLI)

Arrival

Time 2026-04-24 15:50
Airport Seattle Paine Field International Airport (KPAE)
Time Latitude Longitude Altitude Speed Heading
2026-04-24 15:22 48.79328 -122.53326 175 ft 0 kts 327°
2026-04-24 15:30 48.79388 -122.53487 175 ft 18 kts 323°
2026-04-24 15:31 48.79857 -122.53589 173 ft 26 kts
2026-04-24 15:32 48.79881 -122.53753 175 ft 82 kts 179°
2026-04-24 15:33 48.75508 -122.56189 1982 ft 223 kts 251°
2026-04-24 15:33 48.77403 -122.61619 5067 ft 207 kts 354°
2026-04-24 15:34 48.80190 -122.60718 7097 ft 208 kts 22°
2026-04-24 15:35 48.81232 -122.54813 9893 ft 249 kts 116°
2026-04-24 15:35 48.77949 -122.51867 10768 ft 316 kts 173°
2026-04-24 15:35 48.75691 -122.52190 10978 ft 347 kts 198°
2026-04-24 15:36 48.73489 -122.53916 11007 ft 364 kts 222°
2026-04-24 15:36 48.70041 -122.59470 11004 ft 363 kts 225°
2026-04-24 15:36 48.67959 -122.61655 11006 ft 366 kts 209°
2026-04-24 15:37 48.65586 -122.63094 11007 ft 368 kts 198°
2026-04-24 15:37 48.63110 -122.64004 11011 ft 367 kts 191°
2026-04-24 15:37 48.60589 -122.64651 11010 ft 368 kts 188°
2026-04-24 15:37 48.58092 -122.65189 11007 ft 367 kts 187°
2026-04-24 15:38 48.55554 -122.65713 11007 ft 367 kts 187°
2026-04-24 15:38 48.53021 -122.66242 11004 ft 367 kts 188°
2026-04-24 15:38 48.50490 -122.66782 11008 ft 367 kts 188°
2026-04-24 15:38 48.47956 -122.67330 11007 ft 367 kts 188°
2026-04-24 15:39 48.45425 -122.67883 11006 ft 367 kts 188°
2026-04-24 15:39 48.42897 -122.68435 11010 ft 367 kts 188°
2026-04-24 15:39 48.40368 -122.68988 11009 ft 367 kts 188°
2026-04-24 15:39 48.37851 -122.69538 11011 ft 367 kts 188°
2026-04-24 15:40 48.35363 -122.70082 11014 ft 367 kts 188°
2026-04-24 15:40 48.32831 -122.70635 11015 ft 367 kts 188°
2026-04-24 15:40 48.30297 -122.71188 11018 ft 367 kts 188°
2026-04-24 15:40 48.27765 -122.71739 11016 ft 367 kts 188°
2026-04-24 15:41 48.25231 -122.72291 11016 ft 367 kts 188°
2026-04-24 15:41 48.22729 -122.72701 11015 ft 366 kts 178°
2026-04-24 15:41 48.20246 -122.72029 11013 ft 361 kts 156°
2026-04-24 15:41 48.18124 -122.70171 10802 ft 346 kts 134°
2026-04-24 15:42 48.16664 -122.67437 10460 ft 328 kts 111°
2026-04-24 15:42 48.16058 -122.64270 10114 ft 309 kts 88°
2026-04-24 15:42 48.16348 -122.61203 9736 ft 291 kts 65°
2026-04-24 15:42 48.17197 -122.58538 9365 ft 283 kts 57°
2026-04-24 15:43 48.18038 -122.55880 8985 ft 281 kts 66°
2026-04-24 15:43 48.18460 -122.53018 8610 ft 282 kts 80°
2026-04-24 15:43 48.18448 -122.50080 8256 ft 282 kts 90°
2026-04-24 15:43 48.18156 -122.47171 7886 ft 282 kts 96°
2026-04-24 15:44 48.17729 -122.44311 7522 ft 279 kts 98°
2026-04-24 15:44 48.17258 -122.41504 7177 ft 276 kts 99°
2026-04-24 15:44 48.16790 -122.38766 6819 ft 273 kts 99°
2026-04-24 15:44 48.16326 -122.36030 6463 ft 270 kts 99°
2026-04-24 15:45 48.15872 -122.33310 6108 ft 267 kts 99°
2026-04-24 15:45 48.15429 -122.30622 5734 ft 264 kts 99°
2026-04-24 15:45 48.14978 -122.27959 5371 ft 263 kts 103°
2026-04-24 15:45 48.13961 -122.25684 5054 ft 271 kts 137°
2026-04-24 15:46 48.12244 -122.24599 4685 ft 278 kts 172°
2026-04-24 15:46 48.10325 -122.24946 4309 ft 279 kts 193°
2026-04-24 15:46 48.08500 -122.25689 3930 ft 262 kts 193°
2026-04-24 15:46 48.06791 -122.26355 3567 ft 245 kts 192°
2026-04-24 15:47 48.05186 -122.26913 3234 ft 228 kts 189°
2026-04-24 15:47 48.03675 -122.27305 2895 ft 213 kts 186°
2026-04-24 15:47 48.02257 -122.27654 2671 ft 197 kts 186°
2026-04-24 15:47 48.00945 -122.27949 2388 ft 184 kts 184°
2026-04-24 15:48 47.99724 -122.28175 2159 ft 169 kts 184°
2026-04-24 15:48 47.98609 -122.28323 1922 ft 153 kts 180°
2026-04-24 15:48 47.97604 -122.28424 1718 ft 141 kts 181°
2026-04-24 15:48 47.96605 -122.28497 1516 ft 143 kts 180°
2026-04-24 15:49 47.95630 -122.28551 1320 ft 139 kts 180°
2026-04-24 15:49 47.94662 -122.28583 1111 ft 139 kts 180°
2026-04-24 15:49 47.93696 -122.28593 922 ft 138 kts 179°
2026-04-24 15:49 47.92741 -122.28587 733 ft 137 kts 179°
2026-04-24 15:50 47.91787 -122.28569 576 ft 135 kts 178°
2026-04-24 15:50 47.90880 -122.28555 580 ft 120 kts 179°
2026-04-24 15:50 47.90399 -122.28549 582 ft 44 kts 180°
2026-04-24 15:50 47.90211 -122.28459 583 ft 10 kts 91°
2026-04-24 15:51 47.90210 -122.28220 585 ft 26 kts 89°
2026-04-24 15:51 47.90219 -122.28096 589 ft 10 kts 51°
2026-04-24 15:51 47.90237 -122.28081 590 ft 0 kts